HAZ551 ZSPD-ZKPY

Flight info

Callsign HAZ551
Flight time N/A
Altitude 40100
Route SURAK A326 SANKO/K0857S1190 B332 TOMUK
Aircraft A333/H-SDE3GHIJ2J3J5M1RVWXY/LB2D1

Departure

Time N/A
Airport Shanghai Pudong International Airport (ZSPD)

Arrival

Time 2026-04-28 13:41
Airport Pyongyang Sunan International Airport (ZKPY)
Time Latitude Longitude Altitude Speed Heading
2026-04-28 13:29 38.96610 125.11684 5230 ft 335 kts 71°
2026-04-28 13:29 38.97239 125.14573 5223 ft 336 kts 71°
2026-04-28 13:29 38.97863 125.17450 5228 ft 337 kts 71°
2026-04-28 13:30 38.98485 125.20311 5230 ft 337 kts 71°
2026-04-28 13:30 38.99139 125.23332 5224 ft 335 kts 71°
2026-04-28 13:30 38.99766 125.26224 5227 ft 335 kts 71°
2026-04-28 13:30 39.00378 125.29060 5233 ft 336 kts 70°
2026-04-28 13:31 39.01573 125.34605 5210 ft 301 kts 70°
2026-04-28 13:31 39.02139 125.37083 5232 ft 247 kts 69°
2026-04-28 13:31 39.02813 125.38975 4845 ft 244 kts 72°
2026-04-28 13:32 39.02962 125.41093 4940 ft 234 kts 78°
2026-04-28 13:32 39.03220 125.42984 4758 ft 217 kts 77°
2026-04-28 13:32 39.03455 125.44661 4606 ft 177 kts 72°
2026-04-28 13:32 39.03684 125.46418 4275 ft 221 kts 74°
2026-04-28 13:33 39.03937 125.48286 4086 ft 199 kts 73°
2026-04-28 13:33 39.04165 125.49915 4017 ft 172 kts 73°
2026-04-28 13:33 39.04372 125.51348 3935 ft 156 kts 72°
2026-04-28 13:33 39.04563 125.52648 3804 ft 149 kts 72°
2026-04-28 13:34 39.04758 125.53947 3676 ft 147 kts 72°
2026-04-28 13:34 39.04951 125.55267 3538 ft 145 kts 72°
2026-04-28 13:34 39.05135 125.56522 3162 ft 145 kts 71°
2026-04-28 13:34 39.05323 125.57789 2925 ft 145 kts 72°
2026-04-28 13:35 39.05511 125.59074 2975 ft 148 kts 72°
2026-04-28 13:35 39.05706 125.60397 2938 ft 148 kts 73°
2026-04-28 13:35 39.05904 125.61705 2921 ft 148 kts 70°
2026-04-28 13:35 39.06188 125.62908 2845 ft 136 kts 65°
2026-04-28 13:36 39.06464 125.64062 2578 ft 131 kts 66°
2026-04-28 13:36 39.06746 125.65214 2198 ft 128 kts 68°
2026-04-28 13:36 39.07004 125.66290 1923 ft 125 kts 68°
2026-04-28 13:36 39.07250 125.67318 1953 ft 122 kts 68°
2026-04-28 13:37 39.07503 125.68379 1938 ft 124 kts 68°
2026-04-28 13:37 39.07765 125.69474 1940 ft 125 kts 68°
2026-04-28 13:37 39.08023 125.70533 1934 ft 122 kts 66°
2026-04-28 13:37 39.08582 125.71336 1911 ft 118 kts 21°
2026-04-28 13:38 39.09369 125.71504 1925 ft 116 kts 345°
2026-04-28 13:38 39.10132 125.71084 1961 ft 116 kts 337°
2026-04-28 13:38 39.10927 125.70781 1797 ft 117 kts 345°
2026-04-28 13:38 39.11689 125.70495 1652 ft 117 kts 344°
2026-04-28 13:39 39.12465 125.70197 1505 ft 115 kts 344°
2026-04-28 13:39 39.13249 125.69891 1347 ft 116 kts 344°
2026-04-28 13:39 39.14025 125.69585 1187 ft 118 kts 344°
2026-04-28 13:39 39.14805 125.69278 1022 ft 118 kts 344°
2026-04-28 13:40 39.15614 125.68966 868 ft 119 kts 345°
2026-04-28 13:40 39.16451 125.68651 738 ft 136 kts 346°
2026-04-28 13:40 39.17402 125.68295 731 ft 135 kts 342°
2026-04-28 13:40 39.18309 125.67869 536 ft 153 kts 341°
2026-04-28 13:41 39.19338 125.67516 139 ft 143 kts 345°
2026-04-28 13:41 39.20189 125.67173 95 ft 89 kts 346°
2026-04-28 13:41 39.20658 125.66996 99 ft 71 kts 346°
2026-04-28 13:41 39.20956 125.66889 103 ft 39 kts 344°
2026-04-28 13:42 39.21195 125.66801 103 ft 36 kts 349°
2026-04-28 13:42 39.21388 125.66788 101 ft 22 kts 11°
2026-04-28 13:42 39.21480 125.66840 99 ft 11 kts 56°
2026-04-28 13:42 39.21462 125.66923 98 ft 11 kts 154°
2026-04-28 13:43 39.21384 125.66962 98 ft 13 kts 163°
2026-04-28 13:43 39.21290 125.66999 98 ft 14 kts 162°
2026-04-28 13:43 39.21183 125.67042 97 ft 17 kts 163°
2026-04-28 13:43 39.21069 125.67087 97 ft 18 kts 163°
2026-04-28 13:44 39.20944 125.67135 96 ft 20 kts 163°
2026-04-28 13:44 39.20805 125.67191 95 ft 22 kts 163°
2026-04-28 13:44 39.20660 125.67248 95 ft 23 kts 162°
2026-04-28 13:44 39.20501 125.67310 95 ft 23 kts 163°
2026-04-28 13:45 39.20369 125.67362 95 ft 14 kts 163°
2026-04-28 13:45 39.20274 125.67401 95 ft 14 kts 162°
2026-04-28 13:45 39.20177 125.67441 94 ft 11 kts 162°
2026-04-28 13:45 39.20139 125.67490 94 ft 0 kts 95°
2026-04-28 13:46 39.20138 125.67497 94 ft 2 kts 94°
2026-04-28 13:46 39.20142 125.67539 94 ft 3 kts 77°